Flag for Norway Weather past 2 weeks in Hammerfest, Norway

Now
36 °F

Passing clouds.


Feels Like: 25 °F
Forecast: 35 / 40 °F
Wind: 18 mph from South

Location: Hammerfest

Current Time: Oct 24, 2014 at 2:33:17 PM

Latest Report: Oct 24, 2014 at 1:50 PM


Visibility: N/A

Pressure: 29.68 "Hg

Humidity: 70%

Dew point: 27 °F

Location of HammerfestLocation

Historic Weather in Hammerfest — Graph

°F

Hammerfest temperature yesterday

Maximum temperature yesterday: 34 °F (at 12:50 PM)
Minimum temperature yesterday: 28 °F (at 12:50 AM)
Average temperature yesterday: 32 °F

Past Weeks' High & Low Weather Summary

 TemperatureHumidityPressure
High39 °F (Oct 13, 6:50 PM)100% (Oct 12, 7:50 AM)30.21 "Hg (Oct 12, 7:50 AM)
Low21 °F (Oct 22, 3:50 AM)43% (Oct 21, 7:50 PM)29.68 "Hg (Oct 24, 11:50 AM)
Average33 °F76%29.92 "Hg
* Reported Oct 9 1:50 PM — Oct 24 1:24 PM, Hammerfest, Weather by CustomWeather, © 2014

Note: Actual official high and low records may vary slightly from our data, if they occured in-between our weather recording intervals... More about our weather records

Advertising

Hammerfest weather history for previous 24 hours

 ConditionsComfort  
Time TempWeatherWind HumidityBarometerVisibility
1:24 PM
Oct 24
36 °FPassing clouds.15 mph70%29.68 "HgN/A
11:50 AM34 °FPassing clouds.2 mph75%29.68 "HgN/A
10:50 AM36 °FPassing clouds.18 mph70%29.71 "HgN/A
9:50 AM34 °FPassing clouds.15 mph75%29.74 "HgN/A
8:50 AM34 °FPassing clouds.18 mph75%29.74 "HgN/A
7:50 AM34 °FPassing clouds.17 mph75%29.74 "HgN/A
6:50 AM34 °FPassing clouds.17 mph75%29.77 "HgN/A
5:50 AM34 °FPartly cloudy.15 mph75%29.77 "HgN/A
4:50 AM34 °FPassing clouds.16 mph70%29.80 "HgN/A
3:50 AM32 °FPassing clouds.16 mph75%29.80 "HgN/A
12:50 AM34 °FPassing clouds.23 mph70%29.80 "HgN/A
11:50 PM
Oct 23
34 °FClear.24 mph70%29.80 "Hg10 mi
10:50 PM32 °FPassing clouds.18 mph75%29.80 "HgN/A
9:50 PM32 °FPassing clouds.24 mph75%29.80 "HgN/A
8:50 PM32 °FPassing clouds.26 mph69%29.80 "HgN/A
7:50 PM32 °FPassing clouds.24 mph64%29.83 "HgN/A
6:50 PM32 °FPassing clouds.25 mph64%29.83 "HgN/A
5:50 PM34 °FPassing clouds.29 mph60%29.83 "HgN/A
4:50 PM34 °FScattered clouds.25 mph60%29.86 "HgN/A
3:50 PM34 °FScattered clouds.28 mph60%29.83 "HgN/A
2:50 PM34 °FScattered clouds.25 mph60%29.89 "HgN/A
Weather by CustomWeather, © 2014

See weather overviewHow to use our weather pages